| time (UTC) | temp C | wind direction | speed KPH | gust KPH | rain 1hr cm | rain 24hr cm | rain mn cm | humidity % | barometer mb |
| 20260507231429 | 15 | 228 | 9.7 | 16.1 | 0.00 | 0.00 | 0.00 | 42 | 1011.0 |
| 20260507230928 | 15 | 228 | 9.7 | 17.7 | 0.00 | 0.00 | 0.00 | 47 | 1011.0 |
| 20260507230428 | 15 | 230 | 14.5 | 20.9 | 0.00 | 0.00 | 0.00 | 42 | 1011.0 |
| 20260507225929 | 14 | 232 | 16.1 | 29.0 | 0.00 | 0.00 | 0.00 | 41 | 1011.0 |
| 20260507225428 | 15 | 228 | 8.0 | 14.5 | 0.00 | 0.00 | 0.00 | 43 | 1011.0 |
| 20260507224429 | 15 | 227 | 11.3 | 17.7 | 0.00 | 0.00 | 0.00 | 43 | 1011.0 |
| 20260507223929 | 15 | 228 | 11.3 | 19.3 | 0.00 | 0.00 | 0.00 | 41 | 1011.0 |
| 20260507223428 | 15 | 228 | 9.7 | 16.1 | 0.00 | 0.00 | 0.00 | 45 | 1011.0 |
| 20260507222928 | 15 | 227 | 9.7 | 17.7 | 0.00 | 0.00 | 0.00 | 42 | 1011.0 |
| 20260507222431 | 15 | 228 | 9.7 | 19.3 | 0.00 | 0.00 | 0.00 | 40 | 1011.0 |
| 20260507221929 | 15 | 231 | 8.0 | 17.7 | 0.00 | 0.00 | 0.00 | 41 | 1010.0 |
| 20260507221428 | 15 | 229 | 9.7 | 14.5 | 0.00 | 0.00 | 0.00 | 45 | 1010.0 |
| 20260507220928 | 15 | 228 | 12.9 | 19.3 | 0.00 | 0.00 | 0.00 | 43 | 1011.0 |
| 20260507215929 | 15 | 231 | 12.9 | 20.9 | 0.00 | 0.00 | 0.00 | 41 | 1011.0 |
| 20260507215429 | 15 | 230 | 14.5 | 20.9 | 0.00 | 0.00 | 0.00 | 41 | 1011.0 |
| 20260507214928 | 15 | 229 | 9.7 | 14.5 | 0.00 | 0.00 | 0.00 | 42 | 1010.0 |
| 20260507214429 | 15 | 227 | 9.7 | 19.3 | 0.00 | 0.00 | 0.00 | 46 | 1010.0 |
| 20260507213928 | 15 | 227 | 11.3 | 19.3 | 0.00 | 0.00 | 0.00 | 43 | 1011.0 |
| 20260507213433 | 15 | 228 | 11.3 | 19.3 | 0.00 | 0.00 | 0.00 | 45 | 1011.0 |
| 20260507212929 | 15 | 230 | 8.0 | 17.7 | 0.00 | 0.00 | 0.00 | 44 | 1010.0 |
| 20260507212428 | 15 | 232 | 6.4 | 12.9 | 0.00 | 0.00 | 0.00 | 41 | 1010.0 |
| 20260507211928 | 15 | 228 | 8.0 | 16.1 | 0.00 | 0.00 | 0.00 | 44 | 1010.0 |
| 20260507211429 | 15 | 229 | 11.3 | 20.9 | 0.00 | 0.00 | 0.00 | 42 | 1011.0 |
| 20260507210929 | 15 | 230 | 14.5 | 19.3 | 0.00 | 0.00 | 0.00 | 43 | 1010.0 |
| 20260507210428 | 15 | 240 | 9.7 | 14.5 | 0.00 | 0.00 | 0.00 | 42 | 1010.0 |
| 20260507205928 | 15 | 241 | 12.9 | 22.5 | 0.00 | 0.00 | 0.00 | 45 | 1010.0 |
| 20260507205428 | 15 | 236 | 9.7 | 14.5 | 0.00 | 0.00 | 0.00 | 42 | 1010.0 |
| 20260507204929 | 15 | 228 | 4.8 | 12.9 | 0.00 | 0.00 | 0.00 | 46 | 1010.0 |
| 20260507204429 | 15 | 243 | 9.7 | 16.1 | 0.00 | 0.00 | 0.00 | 44 | 1010.0 |
| 20260507203930 | 15 | 243 | 11.3 | 17.7 | 0.00 | 0.00 | 0.00 | 44 | 1010.0 |
| 20260507203429 | 15 | 245 | 6.4 | 16.1 | 0.00 | 0.00 | 0.00 | 44 | 1010.0 |
| 20260507202930 | 15 | 263 | 14.5 | 25.7 | 0.00 | 0.00 | 0.00 | 43 | 1011.0 |
| 20260507202428 | 15 | 260 | 11.3 | 16.1 | 0.00 | 0.00 | 0.00 | 44 | 1011.0 |
| 20260507201930 | 15 | 237 | 11.3 | 22.5 | 0.00 | 0.00 | 0.00 | 42 | 1011.0 |
| 20260507201429 | 16 | 231 | 3.2 | 4.8 | 0.00 | 0.00 | 0.00 | 44 | 1010.0 |
| 20260507200928 | 16 | 337 | 6.4 | 19.3 | 0.00 | 0.00 | 0.00 | 44 | 1010.0 |
| 20260507200429 | 16 | 223 | 8.0 | 11.3 | 0.00 | 0.00 | 0.00 | 44 | 1010.0 |
| 20260507195929 | 16 | 224 | 9.7 | 12.9 | 0.00 | 0.00 | 0.00 | 44 | 1010.0 |
| 20260507195428 | 15 | 223 | 9.7 | 17.7 | 0.00 | 0.00 | 0.00 | 42 | 1010.0 |
| 20260507194930 | 15 | 225 | 3.2 | 4.8 | 0.00 | 0.00 | 0.00 | 46 | 1011.0 |
| 20260507194429 | 15 | 224 | 12.9 | 24.1 | 0.00 | 0.00 | 0.00 | 42 | 1011.0 |
| 20260507193928 | 15 | 223 | 9.7 | 12.9 | 0.00 | 0.00 | 0.00 | 44 | 1011.0 |
| 20260507193430 | 15 | 223 | 4.8 | 9.7 | 0.00 | 0.00 | 0.00 | 47 | 1011.0 |
| 20260507192928 | 16 | 224 | 45.1 | 70.8 | 0.00 | 0.00 | 0.00 | 43 | 1011.0 |
| 20260507192428 | 15 | 227 | 51.5 | 75.6 | 0.00 | 0.00 | 0.00 | 48 | 1011.0 |
| 20260507191929 | 16 | 226 | 53.1 | 77.2 | 0.00 | 0.00 | 0.00 | 47 | 1011.0 |
| 20260507191429 | 15 | 226 | 51.5 | 75.6 | 0.00 | 0.00 | 0.00 | 46 | 1011.0 |
| 20260507190928 | 16 | 238 | 53.1 | 75.6 | 0.00 | 0.00 | 0.00 | 44 | 1011.0 |
| 20260507190429 | 15 | 225 | 19.3 | 43.5 | 0.00 | 0.00 | 0.00 | 45 | 1010.0 |
| 20260507185928 | 15 | 227 | 22.5 | 51.5 | 0.00 | 0.00 | 0.00 | 45 | 1011.0 |
| 20260507185429 | 15 | 224 | 19.3 | 35.4 | 0.00 | 0.00 | 0.00 | 47 | 1011.0 |
| 20260507184929 | 15 | 225 | 16.1 | 40.2 | 0.00 | 0.00 | 0.00 | 46 | 1011.0 |
| 20260507184428 | 15 | 223 | 11.3 | 17.7 | 0.00 | 0.00 | 0.00 | 47 | 1011.0 |
| 20260507183929 | 15 | 224 | 8.0 | 17.7 | 0.00 | 0.00 | 0.00 | 49 | 1011.0 |
| 20260507183431 | 15 | 224 | 6.4 | 9.7 | 0.00 | 0.00 | 0.00 | 47 | 1011.0 |
| 20260507182928 | 15 | 223 | 4.8 | 6.4 | 0.00 | 0.00 | 0.00 | 52 | 1011.0 |
| 20260507182432 | 15 | 224 | 4.8 | 9.7 | 0.00 | 0.00 | 0.00 | 48 | 1011.0 |
| 20260507181931 | 15 | 224 | 6.4 | 19.3 | 0.00 | 0.00 | 0.00 | 50 | 1011.0 |
| 20260507181429 | 15 | 227 | 4.8 | 8.0 | 0.00 | 0.00 | 0.00 | 48 | 1011.0 |
| 20260507180929 | 15 | 223 | 4.8 | 9.7 | 0.00 | 0.00 | 0.00 | 46 | 1011.0 |
| 20260507180430 | 14 | 220 | 11.3 | 54.7 | 0.00 | 0.00 | 0.00 | 49 | 1011.0 |
| 20260507175929 | 14 | 43 | 38.6 | 82.1 | 0.00 | 0.00 | 0.00 | 49 | 1011.0 |
| 20260507175429 | 13 | 40 | 41.8 | 85.3 | 0.00 | 0.00 | 0.00 | 49 | 1011.0 |
| 20260507174929 | 14 | 43 | 56.3 | 78.9 | 0.00 | 0.00 | 0.00 | 47 | 1012.0 |
| 20260507173930 | 14 | 40 | 33.8 | 80.5 | 0.00 | 0.00 | 0.00 | 49 | 1012.0 |
| 20260507173431 | 14 | 37 | 16.1 | 37.0 | 0.00 | 0.00 | 0.00 | 46 | 1012.0 |
| 20260507172932 | 15 | 39 | 22.5 | 53.1 | 0.00 | 0.00 | 0.00 | 47 | 1011.0 |
| 20260507172431 | 15 | 42 | 16.1 | 38.6 | 0.00 | 0.00 | 0.00 | 48 | 1012.0 |
| 20260507171931 | 15 | 40 | 19.3 | 57.9 | 0.00 | 0.00 | 0.00 | 45 | 1012.0 |
| 20260507171432 | 15 | 43 | 9.7 | 17.7 | 0.00 | 0.00 | 0.00 | 49 | 1011.0 |
| 20260507170930 | 15 | 41 | 12.9 | 19.3 | 0.00 | 0.00 | 0.00 | 49 | 1012.0 |
| 20260507170431 | 14 | 20 | 8.0 | 17.7 | 0.00 | 0.00 | 0.00 | 49 | 1011.0 |
| 20260507165931 | 14 | 248 | 9.7 | 20.9 | 0.00 | 0.00 | 0.00 | 47 | 1012.0 |
| 20260507165430 | 14 | 244 | 6.4 | 9.7 | 0.00 | 0.00 | 0.00 | 46 | 1012.0 |
| 20260507164930 | 14 | 255 | 6.4 | 16.1 | 0.00 | 0.00 | 0.00 | 49 | 1011.0 |
| 20260507164431 | 14 | 250 | 17.7 | 27.4 | 0.00 | 0.00 | 0.00 | 46 | 1012.0 |
| 20260507163932 | 13 | 251 | 17.7 | 24.1 | 0.00 | 0.00 | 0.00 | 47 | 1012.0 |
| 20260507163431 | 13 | 235 | 16.1 | 25.7 | 0.00 | 0.00 | 0.00 | 49 | 1012.0 |
| 20260507162931 | 13 | 226 | 14.5 | 33.8 | 0.00 | 0.00 | 0.00 | 50 | 1012.0 |
| 20260507162431 | 13 | 236 | 16.1 | 25.7 | 0.00 | 0.00 | 0.00 | 46 | 1012.0 |
| 20260507161928 | 13 | 237 | 11.3 | 20.9 | 0.00 | 0.00 | 0.00 | 50 | 1012.0 |
| 20260507161429 | 13 | 221 | 3.2 | 9.7 | 0.00 | 0.00 | 0.00 | 48 | 1012.0 |
| 20260507160928 | 13 | 223 | 4.8 | 6.4 | 0.00 | 0.00 | 0.00 | 50 | 1012.0 |
| 20260507160432 | 13 | 223 | 6.4 | 9.7 | 0.00 | 0.00 | 0.00 | 50 | 1013.0 |
| 20260507155930 | 13 | 226 | 8.0 | 16.1 | 0.00 | 0.00 | 0.00 | 51 | 1012.0 |
| 20260507155430 | 13 | 226 | 12.9 | 19.3 | 0.00 | 0.00 | 0.00 | 50 | 1012.0 |
| 20260507154930 | 13 | 227 | 4.8 | 9.7 | 0.00 | 0.00 | 0.00 | 48 | 1013.0 |
| 20260507153931 | 13 | 224 | 4.8 | 9.7 | 0.00 | 0.00 | 0.00 | 51 | 1012.0 |
| 20260507153430 | 13 | 219 | 4.8 | 6.4 | 0.00 | 0.00 | 0.00 | 51 | 1013.0 |
| 20260507152933 | 12 | 223 | 6.4 | 9.7 | 0.00 | 0.00 | 0.00 | 53 | 1012.0 |
| 20260507152429 | 12 | 221 | 4.8 | 6.4 | 0.00 | 0.00 | 0.00 | 50 | 1013.0 |
| 20260507151931 | 12 | 221 | 3.2 | 4.8 | 0.00 | 0.00 | 0.00 | 56 | 1013.0 |
| 20260507151431 | 12 | 220 | 4.8 | 6.4 | 0.00 | 0.00 | 0.00 | 52 | 1013.0 |
| 20260507150930 | 12 | 218 | 4.8 | 6.4 | 0.00 | 0.00 | 0.00 | 55 | 1013.0 |
| 20260507150430 | 12 | 225 | 4.8 | 6.4 | 0.00 | 0.00 | 0.00 | 54 | 1013.0 |
| 20260507145928 | 12 | 223 | 4.8 | 6.4 | 0.00 | 0.00 | 0.00 | 53 | 1013.0 |
| 20260507145428 | 12 | 222 | 4.8 | 6.4 | 0.00 | 0.00 | 0.00 | 52 | 1013.0 |
| 20260507144929 | 12 | 220 | 3.2 | 4.8 | 0.00 | 0.00 | 0.00 | 53 | 1013.0 |
| 20260507144429 | 12 | 225 | 4.8 | 6.4 | 0.00 | 0.00 | 0.00 | 53 | 1013.0 |
| 20260507143929 | 12 | 218 | 4.8 | 6.4 | 0.00 | 0.00 | 0.00 | 55 | 1013.0 |
| 20260507143431 | 12 | 199 | 9.7 | 12.9 | 0.00 | 0.00 | 0.00 | 55 | 1013.0 |
| 20260507142933 | 12 | 223 | 6.4 | 8.0 | 0.00 | 0.00 | 0.00 | 58 | 1013.0 |
| 20260507142431 | 12 | 217 | 3.2 | 6.4 | 0.00 | 0.00 | 0.00 | 56 | 1013.0 |
| 20260507141931 | 12 | 220 | 4.8 | 8.0 | 0.00 | 0.00 | 0.00 | 58 | 1013.0 |
| 20260507141431 | 12 | 224 | 6.4 | 9.7 | 0.00 | 0.00 | 0.00 | 57 | 1014.0 |
| 20260507140933 | 12 | 226 | 6.4 | 12.9 | 0.00 | 0.00 | 0.00 | 58 | 1014.0 |
| 20260507140428 | 11 | 309 | 6.4 | 11.3 | 0.00 | 0.00 | 0.00 | 60 | 1014.0 |
| 20260507135928 | 11 | 287 | 6.4 | 9.7 | 0.00 | 0.00 | 0.00 | 62 | 1014.0 |
| 20260507135429 | 11 | 330 | 4.8 | 6.4 | 0.00 | 0.00 | 0.00 | 60 | 1014.0 |
| 20260507134931 | 11 | 324 | 4.8 | 8.0 | 0.00 | 0.00 | 0.00 | 60 | 1014.0 |
| 20260507134429 | 11 | 242 | 4.8 | 9.7 | 0.00 | 0.00 | 0.00 | 60 | 1014.0 |
| 20260507133932 | 11 | 213 | 4.8 | 8.0 | 0.00 | 0.00 | 0.00 | 61 | 1014.0 |
| 20260507133429 | 11 | 204 | 3.2 | 6.4 | 0.00 | 0.00 | 0.00 | 58 | 1014.0 |
| 20260507132932 | 11 | 185 | 3.2 | 4.8 | 0.00 | 0.00 | 0.00 | 61 | 1014.0 |
| 20260507132430 | 11 | 248 | 4.8 | 9.7 | 0.00 | 0.00 | 0.00 | 63 | 1015.0 |
| 20260507131929 | 11 | 207 | 3.2 | 4.8 | 0.00 | 0.00 | 0.00 | 62 | 1014.0 |
| 20260507131431 | 10 | 132 | 1.6 | 3.2 | 0.00 | 0.00 | 0.00 | 68 | 1014.0 |
| 20260507130929 | 11 | 181 | 4.8 | 8.0 | 0.00 | 0.00 | 0.00 | 66 | 1014.0 |
| 20260507130429 | 11 | 221 | 4.8 | 6.4 | 0.00 | 0.00 | 0.00 | 67 | 1014.0 |
| 20260507125928 | 11 | 229 | 1.6 | 3.2 | 0.00 | 0.00 | 0.00 | 69 | 1014.0 |
| 20260507125430 | 11 | 176 | 1.6 | 4.8 | 0.00 | 0.00 | 0.00 | 70 | 1014.0 |
| 20260507124930 | 11 | 176 | 1.6 | 3.2 | 0.00 | 0.00 | 0.00 | 68 | 1014.0 |
| 20260507124430 | 11 | 188 | 3.2 | 4.8 | 0.00 | 0.00 | 0.00 | 69 | 1014.0 |
| 20260507123929 | 11 | 194 | 3.2 | 6.4 | 0.00 | 0.00 | 0.00 | 70 | 1014.0 |
| 20260507123430 | 10 | 267 | 1.6 | 3.2 | 0.00 | 0.00 | 0.00 | 74 | 1014.0 |
| 20260507122929 | 11 | 161 | 3.2 | 4.8 | 0.00 | 0.00 | 0.00 | 72 | 1014.0 |
| 20260507122430 | 11 | 126 | 1.6 | 3.2 | 0.00 | 0.00 | 0.00 | 73 | 1014.0 |
| 20260507121931 | 10 | 197 | 1.6 | 3.2 | 0.00 | 0.00 | 0.00 | 76 | 1014.0 |
| 20260507121428 | 10 | 123 | 0.0 | 1.6 | 0.00 | 0.00 | 0.00 | 79 | 1014.0 |
| 20260507120930 | 9 | 212 | 1.6 | 3.2 | 0.00 | 0.00 | 0.00 | 81 | 1014.0 |
| 20260507120432 | 8 | 242 | 1.6 | 1.6 | 0.00 | 0.00 | 0.00 | 84 | 1014.0 |
| 20260507115929 | 8 | 212 | 0.0 | 1.6 | 0.00 | 0.00 | 0.00 | 86 | 1014.0 |
| 20260507115428 | 7 | 63 | 1.6 | 3.2 | 0.00 | 0.00 | 0.00 | 87 | 1014.0 |
| 20260507114930 | 7 | 80 | 1.6 | 1.6 | 0.00 | 0.00 | 0.00 | 86 | 1015.0 |
| 20260507114429 | 7 | 73 | 0.0 | 0.0 | 0.00 | 0.00 | 0.00 | 88 | 1015.0 |
| 20260507113931 | 7 | 81 | 0.0 | 0.0 | 0.00 | 0.00 | 0.00 | 91 | 1014.0 |
| 20260507113429 | 6 | 310 | 0.0 | 1.6 | 0.00 | 0.00 | 0.00 | 95 | 1014.0 |
| 20260507112931 | 6 | 155 | 1.6 | 1.6 | 0.00 | 0.00 | 0.00 | 97 | 1014.0 |
| 20260507112430 | 6 | 194 | 1.6 | 3.2 | 0.00 | 0.00 | 0.00 | 98 | 1013.0 |
| 20260507111930 | 6 | 0 | 0.0 | 0.0 | 0.00 | 0.00 | 0.00 | 98 | 1013.0 |
| 20260507111430 | 5 | 250 | 0.0 | 1.6 | 0.00 | 0.00 | 0.00 | 98 | 1013.0 |
| 20260507110933 | 5 | 206 | 1.6 | 1.6 | 0.00 | 0.00 | 0.00 | 98 | 1013.0 |
| 20260507110435 | 4 | 306 | 1.6 | 1.6 | 0.00 | 0.00 | 0.00 | 98 | 1013.0 |
| 20260507105931 | 3 | 263 | 0.0 | 1.6 | 0.00 | 0.00 | 0.00 | 98 | 1013.0 |
| 20260507105431 | 3 | 0 | 0.0 | 0.0 | 0.00 | 0.00 | 0.00 | 98 | 1013.0 |
| 20260507104930 | 3 | 165 | 0.0 | 0.0 | 0.00 | 0.00 | 0.00 | 98 | 1014.0 |
| 20260507104434 | 2 | 0 | 0.0 | 0.0 | 0.00 | 0.00 | 0.00 | 98 | 1014.0 |
| 20260507103929 | 2 | 119 | 0.0 | 0.0 | 0.00 | 0.00 | 0.00 | 98 | 1014.0 |
| 20260507103428 | 2 | 0 | 0.0 | 0.0 | 0.00 | 0.00 | 0.00 | 98 | 1014.0 |
| 20260507102931 | 2 | 212 | 0.0 | 1.6 | 0.00 | 0.00 | 0.00 | 98 | 1014.0 |
| 20260507102429 | 2 | 0 | 0.0 | 0.0 | 0.00 | 0.00 | 0.00 | 98 | 1014.0 |
| 20260507101929 | 2 | 210 | 1.6 | 1.6 | 0.00 | 0.00 | 0.00 | 98 | 1014.0 |
| 20260507101429 | 2 | 217 | 0.0 | 0.0 | 0.00 | 0.00 | 0.00 | 98 | 1014.0 |
| 20260507100929 | 2 | 219 | 1.6 | 1.6 | 0.00 | 0.00 | 0.00 | 98 | 1014.0 |
| 20260507100429 | 2 | 220 | 1.6 | 1.6 | 0.00 | 0.00 | 0.00 | 98 | 1014.0 |
| 20260507095928 | 2 | 250 | 0.0 | 1.6 | 0.00 | 0.00 | 0.00 | 97 | 1014.0 |
| 20260507095428 | 2 | 264 | 0.0 | 0.0 | 0.00 | 0.00 | 0.00 | 97 | 1014.0 |
| 20260507094928 | 2 | 60 | 0.0 | 0.0 | 0.00 | 0.00 | 0.00 | 97 | 1014.0 |
| 20260507094428 | 2 | 228 | 3.2 | 3.2 | 0.00 | 0.00 | 0.00 | 97 | 1014.0 |
| 20260507093929 | 3 | 210 | 3.2 | 3.2 | 0.00 | 0.00 | 0.00 | 97 | 1014.0 |
| 20260507093429 | 3 | 182 | 1.6 | 1.6 | 0.00 | 0.00 | 0.00 | 97 | 1014.0 |
| 20260507092928 | 3 | 202 | 1.6 | 1.6 | 0.00 | 0.00 | 0.00 | 97 | 1014.0 |
| 20260507092429 | 3 | 238 | 1.6 | 1.6 | 0.00 | 0.00 | 0.00 | 97 | 1014.0 |
| 20260507091928 | 3 | 209 | 0.0 | 0.0 | 0.00 | 0.00 | 0.00 | 97 | 1014.0 |
| 20260507091428 | 3 | 201 | 1.6 | 3.2 | 0.00 | 0.00 | 0.00 | 97 | 1014.0 |
| 20260507090929 | 3 | 0 | 0.0 | 0.0 | 0.00 | 0.00 | 0.00 | 97 | 1014.0 |
| 20260507090428 | 3 | 218 | 1.6 | 1.6 | 0.00 | 0.00 | 0.00 | 97 | 1014.0 |
| 20260507085928 | 3 | 202 | 1.6 | 1.6 | 0.00 | 0.00 | 0.00 | 96 | 1014.0 |
| 20260507085428 | 3 | 235 | 0.0 | 1.6 | 0.00 | 0.00 | 0.00 | 96 | 1014.0 |
| 20260507084929 | 3 | 203 | 0.0 | 1.6 | 0.00 | 0.00 | 0.00 | 96 | 1014.0 |
| 20260507084429 | 4 | 221 | 1.6 | 1.6 | 0.00 | 0.00 | 0.00 | 96 | 1014.0 |
| 20260507083928 | 4 | 219 | 1.6 | 1.6 | 0.00 | 0.00 | 0.00 | 96 | 1014.0 |
| 20260507082949 | 5 | 227 | 0.0 | 1.6 | 0.00 | 0.00 | 0.00 | 95 | 1014.0 |
| 20260507082431 | 5 | 210 | 1.6 | 3.2 | 0.00 | 0.00 | 0.00 | 95 | 1014.0 |
| 20260507081931 | 5 | 210 | 1.6 | 1.6 | 0.00 | 0.00 | 0.00 | 95 | 1014.0 |
| 20260507081428 | 5 | 211 | 1.6 | 3.2 | 0.00 | 0.00 | 0.00 | 95 | 1014.0 |
| 20260507080928 | 5 | 221 | 1.6 | 1.6 | 0.00 | 0.00 | 0.00 | 95 | 1014.0 |
| 20260507080429 | 5 | 251 | 0.0 | 1.6 | 0.00 | 0.00 | 0.00 | 94 | 1014.0 |
| 20260507075930 | 6 | 190 | 0.0 | 1.6 | 0.00 | 0.00 | 0.00 | 94 | 1014.0 |
| 20260507075428 | 6 | 207 | 1.6 | 1.6 | 0.00 | 0.00 | 0.00 | 94 | 1014.0 |
| 20260507074929 | 6 | 206 | 0.0 | 1.6 | 0.00 | 0.00 | 0.00 | 94 | 1014.0 |
| 20260507074431 | 6 | 219 | 0.0 | 1.6 | 0.00 | 0.00 | 0.00 | 94 | 1014.0 |
| 20260507073928 | 6 | 229 | 1.6 | 1.6 | 0.00 | 0.00 | 0.00 | 93 | 1014.0 |
| 20260507073428 | 6 | 208 | 1.6 | 1.6 | 0.00 | 0.00 | 0.00 | 93 | 1014.0 |
| 20260507072930 | 6 | 218 | 0.0 | 1.6 | 0.00 | 0.00 | 0.00 | 92 | 1014.0 |
| 20260507072428 | 6 | 207 | 0.0 | 1.6 | 0.00 | 0.00 | 0.00 | 92 | 1014.0 |
| 20260507071931 | 6 | 219 | 0.0 | 1.6 | 0.00 | 0.00 | 0.00 | 91 | 1014.0 |
| 20260507071428 | 7 | 191 | 0.0 | 1.6 | 0.00 | 0.00 | 0.00 | 91 | 1014.0 |
| 20260507070928 | 7 | 208 | 1.6 | 1.6 | 0.00 | 0.00 | 0.00 | 90 | 1014.0 |
| 20260507070432 | 7 | 208 | 0.0 | 1.6 | 0.00 | 0.00 | 0.00 | 89 | 1014.0 |
| 20260507065931 | 7 | 213 | 0.0 | 1.6 | 0.00 | 0.00 | 0.00 | 89 | 1014.0 |
| 20260507065431 | 7 | 206 | 1.6 | 1.6 | 0.00 | 0.00 | 0.00 | 88 | 1014.0 |
| 20260507064930 | 7 | 220 | 1.6 | 3.2 | 0.00 | 0.00 | 0.00 | 86 | 1014.0 |
| 20260507064431 | 7 | 246 | 1.6 | 1.6 | 0.00 | 0.00 | 0.00 | 86 | 1014.0 |
| 20260507063931 | 7 | 213 | 1.6 | 1.6 | 0.00 | 0.00 | 0.00 | 86 | 1014.0 |
| 20260507063430 | 8 | 230 | 1.6 | 1.6 | 0.00 | 0.00 | 0.00 | 87 | 1014.0 |
| 20260507062928 | 8 | 218 | 1.6 | 3.2 | 0.00 | 0.00 | 0.00 | 87 | 1014.0 |
| 20260507062429 | 8 | 223 | 1.6 | 1.6 | 0.00 | 0.00 | 0.00 | 86 | 1014.0 |
| 20260507061928 | 8 | 221 | 1.6 | 3.2 | 0.00 | 0.00 | 0.00 | 87 | 1014.0 |
| 20260507061429 | 8 | 217 | 1.6 | 1.6 | 0.00 | 0.00 | 0.00 | 87 | 1014.0 |
| 20260507060928 | 8 | 245 | 1.6 | 3.2 | 0.00 | 0.00 | 0.00 | 89 | 1014.0 |
| 20260507060429 | 8 | 229 | 1.6 | 1.6 | 0.00 | 0.00 | 0.00 | 89 | 1014.0 |
| 20260507055931 | 8 | 226 | 0.0 | 1.6 | 0.00 | 0.00 | 0.00 | 89 | 1014.0 |
| 20260507055431 | 8 | 219 | 1.6 | 1.6 | 0.00 | 0.00 | 0.00 | 89 | 1014.0 |
| 20260507054928 | 8 | 226 | 1.6 | 3.2 | 0.00 | 0.00 | 0.00 | 89 | 1014.0 |
| 20260507054430 | 8 | 238 | 1.6 | 1.6 | 0.00 | 0.00 | 0.00 | 89 | 1014.0 |
| 20260507053929 | 8 | 220 | 1.6 | 3.2 | 0.00 | 0.00 | 0.00 | 87 | 1014.0 |
| 20260507053428 | 8 | 223 | 1.6 | 3.2 | 0.00 | 0.00 | 0.00 | 85 | 1014.0 |
| 20260507052929 | 8 | 225 | 1.6 | 1.6 | 0.00 | 0.00 | 0.00 | 83 | 1014.0 |
| 20260507052428 | 8 | 260 | 1.6 | 1.6 | 0.00 | 0.00 | 0.00 | 81 | 1015.0 |
| 20260507051928 | 8 | 214 | 1.6 | 1.6 | 0.00 | 0.00 | 0.00 | 80 | 1015.0 |
| 20260507051428 | 9 | 221 | 1.6 | 1.6 | 0.00 | 0.00 | 0.00 | 80 | 1015.0 |
| 20260507050934 | 9 | 213 | 1.6 | 1.6 | 0.00 | 0.00 | 0.00 | 77 | 1015.0 |
| 20260507050429 | 9 | 215 | 1.6 | 1.6 | 0.00 | 0.00 | 0.00 | 74 | 1015.0 |
| 20260507045929 | 9 | 215 | 1.6 | 1.6 | 0.00 | 0.00 | 0.00 | 74 | 1015.0 |
| 20260507045428 | 10 | 207 | 1.6 | 1.6 | 0.00 | 0.00 | 0.00 | 73 | 1015.0 |
| 20260507044929 | 10 | 300 | 0.0 | 1.6 | 0.00 | 0.00 | 0.00 | 70 | 1015.0 |
| 20260507044429 | 10 | 63 | 0.0 | 1.6 | 0.00 | 0.00 | 0.00 | 70 | 1015.0 |
| 20260507043928 | 10 | 0 | 0.0 | 3.2 | 0.00 | 0.00 | 0.00 | 73 | 1015.0 |
| 20260507043428 | 10 | 116 | 1.6 | 3.2 | 0.00 | 0.00 | 0.00 | 70 | 1015.0 |
| 20260507042928 | 9 | 315 | 3.2 | 4.8 | 0.00 | 0.00 | 0.00 | 71 | 1015.0 |
| 20260507042430 | 9 | 210 | 0.0 | 1.6 | 0.00 | 0.00 | 0.00 | 74 | 1015.0 |
| 20260507041929 | 9 | 262 | 0.0 | 1.6 | 0.00 | 0.00 | 0.00 | 80 | 1014.0 |
| 20260507041429 | 9 | 211 | 1.6 | 1.6 | 0.00 | 0.00 | 0.00 | 81 | 1014.0 |
| 20260507040928 | 10 | 240 | 1.6 | 1.6 | 0.00 | 0.00 | 0.00 | 81 | 1014.0 |
| 20260507040429 | 10 | 264 | 0.0 | 1.6 | 0.00 | 0.00 | 0.00 | 81 | 1014.0 |
| 20260507035931 | 10 | 231 | 1.6 | 3.2 | 0.00 | 0.00 | 1.17 | 77 | 1014.0 |
| 20260507035430 | 10 | 225 | 3.2 | 4.8 | 0.00 | 0.00 | 1.17 | 75 | 1015.0 |
| 20260507034928 | 9 | 202 | 0.0 | 1.6 | 0.00 | 0.00 | 1.17 | 78 | 1014.0 |
| 20260507034428 | 9 | 135 | 0.0 | 1.6 | 0.00 | 0.00 | 1.17 | 79 | 1014.0 |
| 20260507033930 | 9 | 22 | 0.0 | 1.6 | 0.00 | 0.00 | 1.17 | 80 | 1015.0 |
| 20260507033428 | 9 | 314 | 1.6 | 3.2 | 0.00 | 0.00 | 1.17 | 87 | 1014.0 |
| 20260507032929 | 9 | 235 | 0.0 | 1.6 | 0.00 | 0.00 | 1.17 | 89 | 1014.0 |
| 20260507032428 | 9 | 212 | 0.0 | 1.6 | 0.00 | 0.00 | 1.17 | 89 | 1014.0 |
| 20260507031928 | 9 | 210 | 3.2 | 3.2 | 0.00 | 0.00 | 1.17 | 89 | 1014.0 |
| 20260507031431 | 9 | 224 | 1.6 | 1.6 | 0.00 | 0.00 | 1.17 | 87 | 1014.0 |
| 20260507030930 | 10 | 226 | 1.6 | 1.6 | 0.00 | 0.00 | 1.17 | 86 | 1014.0 |
| 20260507030430 | 10 | 226 | 1.6 | 1.6 | 0.00 | 0.00 | 1.17 | 85 | 1014.0 |
| 20260507025928 | 10 | 226 | 1.6 | 1.6 | 0.00 | 0.00 | 1.17 | 85 | 1014.0 |
| 20260507025430 | 10 | 225 | 1.6 | 1.6 | 0.00 | 0.00 | 1.17 | 83 | 1014.0 |
| 20260507024929 | 10 | 226 | 1.6 | 1.6 | 0.00 | 0.00 | 1.17 | 82 | 1014.0 |
| 20260507024430 | 10 | 225 | 1.6 | 1.6 | 0.00 | 0.00 | 1.17 | 83 | 1014.0 |
| 20260507023930 | 10 | 226 | 1.6 | 1.6 | 0.00 | 0.00 | 1.17 | 83 | 1014.0 |
| 20260507023430 | 10 | 226 | 1.6 | 1.6 | 0.00 | 0.00 | 1.17 | 81 | 1014.0 |
| 20260507022928 | 10 | 275 | 4.8 | 6.4 | 0.00 | 0.00 | 1.17 | 81 | 1014.0 |
| 20260507022431 | 11 | 295 | 3.2 | 6.4 | 0.00 | 0.00 | 1.17 | 81 | 1014.0 |
| 20260507021930 | 11 | 338 | 4.8 | 6.4 | 0.00 | 0.00 | 1.17 | 76 | 1014.0 |
| 20260507021428 | 11 | 318 | 3.2 | 6.4 | 0.00 | 0.00 | 1.17 | 82 | 1014.0 |
| 20260507020930 | 11 | 333 | 4.8 | 4.8 | 0.00 | 0.00 | 1.17 | 76 | 1014.0 |
| 20260507020431 | 11 | 321 | 4.8 | 4.8 | 0.00 | 0.00 | 1.17 | 76 | 1014.0 |
| 20260507015930 | 11 | 332 | 3.2 | 6.4 | 0.00 | 0.00 | 1.17 | 76 | 1014.0 |
| 20260507015430 | 11 | 328 | 4.8 | 4.8 | 0.00 | 0.00 | 1.17 | 77 | 1014.0 |
| 20260507014928 | 11 | 340 | 4.8 | 4.8 | 0.00 | 0.00 | 1.17 | 77 | 1014.0 |
| 20260507014431 | 11 | 349 | 3.2 | 4.8 | 0.00 | 0.00 | 1.17 | 79 | 1013.0 |
| 20260507013931 | 11 | 332 | 6.4 | 6.4 | 0.00 | 0.00 | 1.17 | 80 | 1013.0 |
| 20260507013430 | 10 | 324 | 3.2 | 6.4 | 0.00 | 0.00 | 1.17 | 86 | 1013.0 |
| 20260507012930 | 10 | 302 | 6.4 | 14.5 | 0.00 | 0.00 | 1.17 | 93 | 1013.0 |
| 20260507012430 | 10 | 233 | 3.2 | 6.4 | 0.00 | 0.00 | 1.17 | 94 | 1012.0 |
| 20260507011928 | 10 | 216 | 1.6 | 1.6 | 0.00 | 0.00 | 1.17 | 94 | 1012.0 |
| 20260507011429 | 10 | 216 | 3.2 | 3.2 | 0.00 | 0.00 | 1.17 | 93 | 1012.0 |
| 20260507010931 | 10 | 210 | 1.6 | 3.2 | 0.00 | 0.00 | 1.17 | 93 | 1012.0 |
| 20260507010428 | 10 | 224 | 1.6 | 3.2 | 0.00 | 0.00 | 1.17 | 92 | 1012.0 |
| 20260507005929 | 10 | 208 | 1.6 | 3.2 | 0.00 | 0.00 | 1.17 | 92 | 1012.0 |
| 20260507005429 | 10 | 215 | 3.2 | 3.2 | 0.00 | 0.00 | 1.17 | 91 | 1013.0 |
| 20260507004928 | 10 | 183 | 1.6 | 1.6 | 0.00 | 0.00 | 1.17 | 91 | 1013.0 |
| 20260507004429 | 11 | 208 | 3.2 | 3.2 | 0.00 | 0.00 | 1.17 | 90 | 1013.0 |
| 20260507003929 | 11 | 268 | 1.6 | 1.6 | 0.00 | 0.00 | 1.17 | 90 | 1013.0 |
| 20260507003430 | 11 | 214 | 3.2 | 3.2 | 0.00 | 0.00 | 1.17 | 89 | 1013.0 |
| 20260507002930 | 11 | 217 | 1.6 | 3.2 | 0.00 | 0.00 | 1.17 | 89 | 1013.0 |
| 20260507002429 | 11 | 226 | 3.2 | 4.8 | 0.00 | 0.00 | 1.17 | 87 | 1013.0 |
| 20260507001930 | 11 | 234 | 1.6 | 3.2 | 0.00 | 0.00 | 1.17 | 88 | 1013.0 |
| 20260507001428 | 11 | 217 | 1.6 | 3.2 | 0.00 | 0.00 | 1.17 | 89 | 1013.0 |
| 20260507000930 | 11 | 214 | 3.2 | 3.2 | 0.00 | 0.00 | 1.17 | 89 | 1013.0 |
| 20260507000430 | 11 | 221 | 3.2 | 9.7 | 0.00 | 0.00 | 1.17 | 90 | 1013.0 |
| 20260506235929 | 11 | 216 | 3.2 | 3.2 | 0.00 | 0.00 | 1.17 | 89 | 1013.0 |
| 20260506235430 | 11 | 224 | 1.6 | 3.2 | 0.00 | 0.00 | 1.17 | 88 | 1013.0 |
| 20260506234933 | 11 | 222 | 4.8 | 8.0 | 0.00 | 0.00 | 1.17 | 86 | 1013.0 |
| 20260506234430 | 11 | 226 | 1.6 | 1.6 | 0.00 | 0.00 | 1.17 | 86 | 1013.0 |
| 20260506233928 | 11 | 221 | 3.2 | 3.2 | 0.00 | 0.00 | 1.17 | 87 | 1013.0 |
| 20260506233436 | 12 | 227 | 6.4 | 19.3 | 0.00 | 0.00 | 1.17 | 86 | 1013.0 |
| 20260506232930 | 12 | 220 | 3.2 | 4.8 | 0.00 | 0.00 | 1.17 | 84 | 1013.0 |
| 20260506232431 | 12 | 236 | 1.6 | 1.6 | 0.00 | 0.00 | 1.17 | 84 | 1013.0 |
| 20260506231930 | 12 | 220 | 3.2 | 3.2 | 0.00 | 0.00 | 1.17 | 85 | 1013.0 |